Tracking 22454 objects as of 5-Mar-2021
HD Live streaming from Space Station
objects crossing your sky now

FREGAT DEB

Track FREGAT DEB now!
10-day predictions


NORAD ID: 46239
Int'l Code: 2011-037JZ
Perigee: 613.5 km
Apogee: 3,591.4 km
Inclination: 51.4 °
Period: 129.4 minutes
Semi major axis: 8473 km
RCS: Unknown
Launch date: July 18, 2011
Source: Commonwealth of Independent States (former USSR) (CIS)
Launch site: TYURATAM MISSILE AND SPACE COMPLEX (TTMTR)

Note: This is SATELLITE DEBRIS
aabbcc
Your satellite tracking list
Your tracking list is empty




NASA's NSSDC Master Catalog

Two Line Element Set (TLE):
1 46239U 11037JZ  20241.23513097 -.00007946 +00000-0 -71588-2 0  9994
2 46239 051.4118 179.1165 1757174 199.5354 152.8976 11.13037878001125
Source of the keplerian elements: AFSPC